Tracking 28908 objects as of 21-May-2024
HD Live streaming from Space Station
objects crossing your sky now

COSMOS 2491 DEB

Track COSMOS 2491 DEB now!
10-day predictions


NORAD ID: 44998
Int'l Code: 2013-076T
Perigee: 1,337.0 km
Apogee: 1,491.5 km
Inclination: 82.5 °
Period: 113.9 minutes
Semi major axis: 7785 km
RCS: Unknown
Launch date: December 25, 2013
Source: Commonwealth of Independent States (former USSR) (CIS)
Launch site: PLESETSK MISSILE AND SPACE COMPLEX (PKMTR)

Note: This is SATELLITE DEBRIS
Your satellite tracking list
Your tracking list is empty




NASA's NSSDC Master Catalog

Two Line Element Set (TLE):
1 44998U 13076S   24134.60844202  .00009009  00000-0  48314-1 0  9990
2 44998  82.4752 249.0419 0099244 106.9934 254.2062 12.63841389200540
Source of the keplerian elements: AFSPC